Torna al catalogo

YAOGAN-39 02A

AttivoMilitareVLEO
NORAD 57886·PAYLOAD·🇨🇳 China

Lanciato Sep 17, 2023 da Xichang Satellite Launch Center

Loading…

Prossimi Passaggi (prossime 24 ore)

TLE

AggiornatoSource: Space-Track

Epoca: Sep 14, 2026, 14:39 UTC

1 57886U 23145A   26257.61096046  .00008026  00000-0  33356-3 0  9992
2 57886  35.0052 358.0897 0002061  40.1134 319.9733 15.23080386166816

Traccia YAOGAN-39 02A in tempo reale con AllMySat

Download on the App Store